contact:dominique.lefevre@mio.osupytheas.fr, maurice.libes@osupytheas.fr, didier.mallarino@osupytheas.fr
Project:EMSO http://www.emso-fr.org/EMSO-France
Depth: 2436.0 m
Title:EMSO Ligure Ouest : Data MII capteur CSTAR
DateTime,Latitude,Longitude,Instrument_Serial,Reference_Counts,Signal_Counts,Corrected_Signal_raw_counts,Calculated_Beam_c_inverse_meters,Internal_thermistor_counts
DateTime,Latitude,Longitude,Instrument_Serial,Reference_Counts,Signal_Counts,Corrected_Signal_raw_counts,Calculated_Beam_c_inverse_meters,Internal_thermistor_counts
2019-10-11T00:01:15,42.805,6.029,CST-1368DR,7634,10695,15347,0.070,551
2019-10-11T00:04:16,42.805,6.029,CST-1368DR,7634,10692,15343,0.071,551
2019-10-11T00:07:18,42.805,6.029,CST-1368DR,7633,10691,15344,0.070,551
2019-10-11T00:10:20,42.805,6.029,CST-1368DR,7633,10691,15344,0.070,551
2019-10-11T00:13:21,42.805,6.029,CST-1368DR,7634,10694,15346,0.070,551
2019-10-11T00:16:23,42.805,6.029,CST-1368DR,7634,10694,15347,0.070,551
2019-10-11T00:19:25,42.805,6.029,CST-1368DR,7633,10693,15347,0.070,551
2019-10-11T00:22:26,42.805,6.029,CST-1368DR,7633,10694,15348,0.069,551
2019-10-11T00:25:28,42.805,6.029,CST-1368DR,7633,10694,15348,0.069,551
2019-10-11T00:28:30,42.805,6.029,CST-1368DR,7633,10693,15346,0.070,551
2019-10-11T00:31:31,42.805,6.029,CST-1368DR,7633,10692,15345,0.070,551
2019-10-11T00:34:33,42.805,6.029,CST-1368DR,7633,10693,15347,0.070,551
2019-10-11T00:37:35,42.805,6.029,CST-1368DR,7633,10694,15348,0.069,551
2019-10-11T00:40:36,42.805,6.029,CST-1368DR,7633,10693,15347,0.070,551
2019-10-11T00:43:38,42.805,6.029,CST-1368DR,7633,10693,15347,0.070,551
2019-10-11T00:46:39,42.805,6.029,CST-1368DR,7633,10693,15347,0.070,551
2019-10-11T00:49:41,42.805,6.029,CST-1368DR,7633,10693,15347,0.070,551
2019-10-11T00:52:43,42.805,6.029,CST-1368DR,7633,10693,15347,0.070,551
2019-10-11T00:55:44,42.805,6.029,CST-1368DR,7633,10692,15346,0.070,551
2019-10-11T00:58:46,42.805,6.029,CST-1368DR,7633,10694,15348,0.069,551
2019-10-11T01:01:48,42.805,6.029,CST-1368DR,7633,10693,15347,0.070,551
2019-10-11T01:04:49,42.805,6.029,CST-1368DR,7633,10694,15348,0.069,551
2019-10-11T01:07:51,42.805,6.029,CST-1368DR,7633,10694,15348,0.069,551
2019-10-11T01:10:53,42.805,6.029,CST-1368DR,7633,10694,15348,0.069,550
2019-10-11T01:13:54,42.805,6.029,CST-1368DR,7633,10690,15342,0.071,551
2019-10-11T01:16:56,42.805,6.029,CST-1368DR,7633,10693,15347,0.070,551
2019-10-11T01:19:57,42.805,6.029,CST-1368DR,7633,10689,15341,0.071,551
2019-10-11T01:22:59,42.805,6.029,CST-1368DR,7633,10693,15347,0.070,551
2019-10-11T01:26:01,42.805,6.029,CST-1368DR,7633,10694,15348,0.069,551
2019-10-11T01:29:02,42.805,6.029,CST-1368DR,7633,10694,15348,0.069,551
2019-10-11T01:32:04,42.805,6.029,CST-1368DR,7633,10694,15349,0.069,551
2019-10-11T01:35:06,42.805,6.029,CST-1368DR,7633,10694,15348,0.069,551
2019-10-11T01:38:07,42.805,6.029,CST-1368DR,7633,10694,15348,0.069,551
2019-10-11T01:41:09,42.805,6.029,CST-1368DR,7633,10693,15347,0.070,550
2019-10-11T01:44:10,42.805,6.029,CST-1368DR,7633,10693,15347,0.070,551
2019-10-11T01:47:12,42.805,6.029,CST-1368DR,7633,10693,15347,0.070,551
2019-10-11T01:50:14,42.805,6.029,CST-1368DR,7633,10694,15348,0.069,550
2019-10-11T01:53:15,42.805,6.029,CST-1368DR,7633,10694,15348,0.069,550
2019-10-11T01:56:17,42.805,6.029,CST-1368DR,7633,10694,15348,0.069,551
2019-10-11T01:59:19,42.805,6.029,CST-1368DR,7633,10694,15348,0.069,551
2019-10-11T02:02:20,42.805,6.029,CST-1368DR,7633,10692,15346,0.070,551
2019-10-11T02:05:22,42.805,6.029,CST-1368DR,7633,10689,15341,0.071,551
2019-10-11T02:08:23,42.805,6.029,CST-1368DR,7633,10693,15347,0.070,551
2019-10-11T02:11:25,42.805,6.029,CST-1368DR,7633,10694,15348,0.069,551
2019-10-11T02:14:27,42.805,6.029,CST-1368DR,7633,10694,15348,0.069,550
2019-10-11T02:17:28,42.805,6.029,CST-1368DR,7633,10693,15347,0.070,551
2019-10-11T02:20:30,42.805,6.029,CST-1368DR,7633,10693,15347,0.070,551
2019-10-11T02:23:32,42.805,6.029,CST-1368DR,7633,10693,15347,0.070,551
2019-10-11T02:26:33,42.805,6.029,CST-1368DR,7633,10693,15347,0.070,551
2019-10-11T02:29:35,42.805,6.029,CST-1368DR,7633,10693,15347,0.070,551
2019-10-11T02:32:36,42.805,6.029,CST-1368DR,7633,10693,15347,0.070,551
2019-10-11T02:35:38,42.805,6.029,CST-1368DR,7633,10693,15347,0.070,551
2019-10-11T02:38:40,42.805,6.029,CST-1368DR,7633,10693,15346,0.070,551
2019-10-11T02:41:41,42.805,6.029,CST-1368DR,7633,10693,15347,0.070,551
2019-10-11T02:44:43,42.805,6.029,CST-1368DR,7633,10689,15341,0.071,551
2019-10-11T02:47:45,42.805,6.029,CST-1368DR,7633,10693,15347,0.070,551
2019-10-11T02:50:46,42.805,6.029,CST-1368DR,7633,10693,15347,0.070,551
2019-10-11T02:53:48,42.805,6.029,CST-1368DR,7633,10692,15345,0.070,551
2019-10-11T02:56:49,42.805,6.029,CST-1368DR,7633,10692,15346,0.070,551
2019-10-11T02:59:51,42.805,6.029,CST-1368DR,7633,10691,15344,0.070,551
2019-10-11T03:02:53,42.805,6.029,CST-1368DR,7633,10693,15346,0.070,551
2019-10-11T03:05:54,42.805,6.029,CST-1368DR,7633,10692,15346,0.070,551
2019-10-11T03:08:56,42.805,6.029,CST-1368DR,7633,10693,15347,0.070,551
2019-10-11T03:11:58,42.805,6.029,CST-1368DR,7633,10692,15346,0.070,551
2019-10-11T03:14:59,42.805,6.029,CST-1368DR,7633,10691,15343,0.071,551
2019-10-11T03:18:01,42.805,6.029,CST-1368DR,7633,10693,15347,0.070,551
2019-10-11T03:21:03,42.805,6.029,CST-1368DR,7633,10693,15347,0.070,551
2019-10-11T03:24:04,42.805,6.029,CST-1368DR,7632,10692,15348,0.069,551
2019-10-11T03:27:06,42.805,6.029,CST-1368DR,7632,10693,15349,0.069,551
2019-10-11T03:30:07,42.805,6.029,CST-1368DR,7633,10693,15346,0.070,551
2019-10-11T03:33:09,42.805,6.029,CST-1368DR,7633,10693,15346,0.070,551
2019-10-11T03:36:11,42.805,6.029,CST-1368DR,7632,10693,15349,0.069,551
2019-10-11T03:39:12,42.805,6.029,CST-1368DR,7633,10693,15347,0.070,551
2019-10-11T03:42:14,42.805,6.029,CST-1368DR,7632,10692,15347,0.070,551
2019-10-11T03:45:16,42.805,6.029,CST-1368DR,7632,10691,15345,0.070,551
2019-10-11T03:48:17,42.805,6.029,CST-1368DR,7632,10692,15347,0.070,550
2019-10-11T03:51:19,42.805,6.029,CST-1368DR,7632,10693,15348,0.069,551
2019-10-11T03:54:21,42.805,6.029,CST-1368DR,7632,10693,15349,0.069,551
2019-10-11T03:57:22,42.805,6.029,CST-1368DR,7633,10693,15347,0.070,551
2019-10-11T04:00:24,42.805,6.029,CST-1368DR,7632,10692,15348,0.069,551
2019-10-11T04:03:25,42.805,6.029,CST-1368DR,7632,10693,15348,0.069,551
2019-10-11T04:06:27,42.805,6.029,CST-1368DR,7632,10692,15348,0.069,551
2019-10-11T04:09:29,42.805,6.029,CST-1368DR,7632,10693,15348,0.069,551
2019-10-11T04:12:30,42.805,6.029,CST-1368DR,7632,10691,15346,0.070,551
2019-10-11T04:15:32,42.805,6.029,CST-1368DR,7632,10693,15348,0.069,551
2019-10-11T04:18:34,42.805,6.029,CST-1368DR,7632,10691,15345,0.070,551
2019-10-11T04:21:35,42.805,6.029,CST-1368DR,7632,10693,15349,0.069,551
2019-10-11T04:24:37,42.805,6.029,CST-1368DR,7632,10692,15347,0.070,551
2019-10-11T04:27:38,42.805,6.029,CST-1368DR,7632,10692,15347,0.070,551
2019-10-11T04:30:40,42.805,6.029,CST-1368DR,7632,10692,15348,0.069,551
2019-10-11T04:33:42,42.805,6.029,CST-1368DR,7632,10690,15345,0.070,551
2019-10-11T04:36:43,42.805,6.029,CST-1368DR,7632,10693,15349,0.069,551
2019-10-11T04:39:45,42.805,6.029,CST-1368DR,7632,10691,15346,0.070,551
2019-10-11T04:42:47,42.805,6.029,CST-1368DR,7632,10693,15349,0.069,551
2019-10-11T04:45:48,42.805,6.029,CST-1368DR,7632,10690,15344,0.070,551
2019-10-11T04:48:50,42.805,6.029,CST-1368DR,7632,10692,15347,0.070,550
2019-10-11T04:51:51,42.805,6.029,CST-1368DR,7632,10692,15348,0.069,551
2019-10-11T04:54:53,42.805,6.029,CST-1368DR,7632,10691,15345,0.070,551
2019-10-11T04:57:55,42.805,6.029,CST-1368DR,7632,10692,15348,0.069,551
2019-10-11T05:00:56,42.805,6.029,CST-1368DR,7632,10693,15348,0.069,551
2019-10-11T05:03:58,42.805,6.029,CST-1368DR,7632,10693,15349,0.069,551
2019-10-11T05:07:00,42.805,6.029,CST-1368DR,7632,10692,15347,0.070,550
2019-10-11T05:10:01,42.805,6.029,CST-1368DR,7632,10691,15346,0.070,551
2019-10-11T05:13:03,42.805,6.029,CST-1368DR,7632,10690,15345,0.070,551
2019-10-11T05:16:05,42.805,6.029,CST-1368DR,7632,10691,15346,0.070,551
2019-10-11T05:19:06,42.805,6.029,CST-1368DR,7632,10691,15346,0.070,551
2019-10-11T05:22:08,42.805,6.029,CST-1368DR,7632,10692,15347,0.070,551
2019-10-11T05:25:09,42.805,6.029,CST-1368DR,7632,10691,15346,0.070,551
2019-10-11T05:28:11,42.805,6.029,CST-1368DR,7632,10691,15346,0.070,551
2019-10-11T05:31:13,42.805,6.029,CST-1368DR,7632,10690,15345,0.070,551
2019-10-11T05:34:14,42.805,6.029,CST-1368DR,7632,10690,15345,0.070,551
2019-10-11T05:37:16,42.805,6.029,CST-1368DR,7632,10692,15347,0.070,551
2019-10-11T05:40:18,42.805,6.029,CST-1368DR,7632,10691,15345,0.070,551
2019-10-11T05:43:19,42.805,6.029,CST-1368DR,7632,10692,15348,0.069,551
2019-10-11T05:46:21,42.805,6.029,CST-1368DR,7632,10690,15345,0.070,551
2019-10-11T05:49:22,42.805,6.029,CST-1368DR,7632,10691,15346,0.070,551
2019-10-11T05:52:24,42.805,6.029,CST-1368DR,7632,10690,15345,0.070,551
2019-10-11T05:55:26,42.805,6.029,CST-1368DR,7632,10690,15344,0.070,551
2019-10-11T05:58:27,42.805,6.029,CST-1368DR,7632,10691,15345,0.070,551
2019-10-11T06:01:29,42.805,6.029,CST-1368DR,7632,10690,15344,0.070,551
2019-10-11T06:04:31,42.805,6.029,CST-1368DR,7632,10691,15346,0.070,551
2019-10-11T06:07:32,42.805,6.029,CST-1368DR,7632,10692,15347,0.070,551
2019-10-11T06:10:34,42.805,6.029,CST-1368DR,7632,10692,15347,0.070,551
2019-10-11T06:13:36,42.805,6.029,CST-1368DR,7632,10690,15344,0.070,551
2019-10-11T06:16:37,42.805,6.029,CST-1368DR,7632,10690,15344,0.070,551
2019-10-11T06:19:39,42.805,6.029,CST-1368DR,7632,10690,15344,0.070,551
2019-10-11T06:22:40,42.805,6.029,CST-1368DR,7632,10691,15345,0.070,551
2019-10-11T06:25:42,42.805,6.029,CST-1368DR,7632,10691,15346,0.070,551
2019-10-11T06:28:45,42.805,6.029,CST-1368DR,7631,10691,15348,0.069,551
2019-10-11T06:31:46,42.805,6.029,CST-1368DR,7632,10691,15346,0.070,551
2019-10-11T06:34:48,42.805,6.029,CST-1368DR,7632,10692,15347,0.070,551
2019-10-11T06:37:50,42.805,6.029,CST-1368DR,7632,10691,15345,0.070,551
2019-10-11T06:40:51,42.805,6.029,CST-1368DR,7631,10690,15347,0.070,551
2019-10-11T06:43:53,42.805,6.029,CST-1368DR,7632,10692,15347,0.070,551
2019-10-11T06:46:54,42.805,6.029,CST-1368DR,7631,10691,15348,0.069,551
2019-10-11T06:49:56,42.805,6.029,CST-1368DR,7631,10691,15348,0.069,551
2019-10-11T06:52:58,42.805,6.029,CST-1368DR,7631,10691,15348,0.069,551
2019-10-11T06:55:59,42.805,6.029,CST-1368DR,7632,10692,15347,0.070,551
2019-10-11T06:59:01,42.805,6.029,CST-1368DR,7632,10692,15347,0.070,551
2019-10-11T07:02:03,42.805,6.029,CST-1368DR,7631,10692,15349,0.069,551
2019-10-11T07:05:04,42.805,6.029,CST-1368DR,7631,10692,15349,0.069,551
2019-10-11T07:08:06,42.805,6.029,CST-1368DR,7631,10690,15346,0.070,551
2019-10-11T07:11:07,42.805,6.029,CST-1368DR,7631,10691,15348,0.069,551
2019-10-11T07:14:09,42.805,6.029,CST-1368DR,7631,10691,15348,0.069,551
2019-10-11T07:17:11,42.805,6.029,CST-1368DR,7631,10691,15348,0.069,551
2019-10-11T07:20:12,42.805,6.029,CST-1368DR,7631,10692,15349,0.069,551
2019-10-11T07:23:14,42.805,6.029,CST-1368DR,7631,10691,15348,0.069,551
2019-10-11T07:26:16,42.805,6.029,CST-1368DR,7631,10691,15348,0.069,551
2019-10-11T07:29:17,42.805,6.029,CST-1368DR,7631,10692,15349,0.069,550
2019-10-11T07:32:19,42.805,6.029,CST-1368DR,7631,10690,15347,0.070,551
2019-10-11T07:35:20,42.805,6.029,CST-1368DR,7631,10690,15347,0.070,551
2019-10-11T07:38:22,42.805,6.029,CST-1368DR,7631,10691,15347,0.070,551
2019-10-11T07:41:24,42.805,6.029,CST-1368DR,7631,10691,15347,0.070,551
2019-10-11T07:44:25,42.805,6.029,CST-1368DR,7631,10690,15346,0.070,551
2019-10-11T07:47:27,42.805,6.029,CST-1368DR,7631,10692,15349,0.069,551
2019-10-11T07:50:29,42.805,6.029,CST-1368DR,7631,10689,15345,0.070,551
2019-10-11T07:53:30,42.805,6.029,CST-1368DR,7631,10692,15349,0.069,550
2019-10-11T07:56:32,42.805,6.029,CST-1368DR,7631,10690,15347,0.070,551
2019-10-11T07:59:33,42.805,6.029,CST-1368DR,7631,10692,15350,0.069,551
2019-10-11T08:02:35,42.805,6.029,CST-1368DR,7631,10691,15348,0.069,551
2019-10-11T08:05:37,42.805,6.029,CST-1368DR,7631,10689,15344,0.070,550
2019-10-11T08:08:38,42.805,6.029,CST-1368DR,7631,10691,15348,0.069,551
2019-10-11T08:11:40,42.805,6.029,CST-1368DR,7631,10691,15348,0.069,551
2019-10-11T08:14:42,42.805,6.029,CST-1368DR,7631,10691,15347,0.070,551
2019-10-11T08:17:43,42.805,6.029,CST-1368DR,7631,10691,15348,0.069,551
2019-10-11T08:20:45,42.805,6.029,CST-1368DR,7631,10690,15347,0.070,551
2019-10-11T08:23:47,42.805,6.029,CST-1368DR,7631,10690,15346,0.070,551
2019-10-11T08:26:48,42.805,6.029,CST-1368DR,7631,10691,15348,0.069,551
2019-10-11T08:29:50,42.805,6.029,CST-1368DR,7631,10691,15347,0.070,551
2019-10-11T08:32:51,42.805,6.029,CST-1368DR,7631,10690,15346,0.070,551
2019-10-11T08:35:53,42.805,6.029,CST-1368DR,7631,10691,15347,0.070,551
2019-10-11T08:38:55,42.805,6.029,CST-1368DR,7631,10691,15347,0.070,551
2019-10-11T08:41:56,42.805,6.029,CST-1368DR,7631,10691,15348,0.069,551
2019-10-11T08:44:58,42.805,6.029,CST-1368DR,7631,10689,15345,0.070,551
2019-10-11T08:48:00,42.805,6.029,CST-1368DR,7631,10692,15349,0.069,551
2019-10-11T08:51:01,42.805,6.029,CST-1368DR,7631,10689,15344,0.070,551
2019-10-11T08:54:03,42.805,6.029,CST-1368DR,7631,10691,15348,0.069,551
2019-10-11T08:57:04,42.805,6.029,CST-1368DR,7631,10690,15346,0.070,551
2019-10-11T09:00:06,42.805,6.029,CST-1368DR,7631,10690,15347,0.070,551
2019-10-11T09:03:08,42.805,6.029,CST-1368DR,7631,10691,15348,0.069,551
2019-10-11T09:06:09,42.805,6.029,CST-1368DR,7631,10689,15345,0.070,551
2019-10-11T09:09:11,42.805,6.029,CST-1368DR,7631,10690,15346,0.070,551
2019-10-11T09:12:13,42.805,6.029,CST-1368DR,7631,10691,15348,0.069,551
2019-10-11T09:15:14,42.805,6.029,CST-1368DR,7631,10691,15348,0.069,550
2019-10-11T09:18:16,42.805,6.029,CST-1368DR,7631,10690,15346,0.070,551
2019-10-11T09:21:17,42.805,6.029,CST-1368DR,7631,10690,15346,0.070,551
2019-10-11T09:24:19,42.805,6.029,CST-1368DR,7630,10689,15347,0.070,551
2019-10-11T09:27:21,42.805,6.029,CST-1368DR,7631,10689,15345,0.070,551
2019-10-11T09:30:22,42.805,6.029,CST-1368DR,7631,10690,15346,0.070,551
2019-10-11T09:33:24,42.805,6.029,CST-1368DR,7631,10690,15346,0.070,551
2019-10-11T09:36:26,42.805,6.029,CST-1368DR,7631,10691,15347,0.070,551
2019-10-11T09:39:27,42.805,6.029,CST-1368DR,7631,10690,15347,0.070,551
2019-10-11T09:42:29,42.805,6.029,CST-1368DR,7630,10689,15347,0.070,551
2019-10-11T09:45:30,42.805,6.029,CST-1368DR,7631,10690,15346,0.070,551
2019-10-11T09:48:32,42.805,6.029,CST-1368DR,7630,10687,15344,0.070,551
2019-10-11T09:51:34,42.805,6.029,CST-1368DR,7630,10689,15347,0.070,551
2019-10-11T09:54:36,42.805,6.029,CST-1368DR,7630,10688,15345,0.070,551
2019-10-11T09:57:38,42.805,6.029,CST-1368DR,7630,10686,15343,0.071,551
2019-10-11T10:00:39,42.805,6.029,CST-1368DR,7630,10691,15349,0.069,551
2019-10-11T10:03:41,42.805,6.029,CST-1368DR,7630,10691,15349,0.069,551
2019-10-11T10:06:43,42.805,6.029,CST-1368DR,7630,10690,15348,0.069,551
2019-10-11T10:09:44,42.805,6.029,CST-1368DR,7630,10690,15348,0.069,551
2019-10-11T10:12:46,42.805,6.029,CST-1368DR,7630,10689,15346,0.070,551
2019-10-11T10:15:47,42.805,6.029,CST-1368DR,7630,10689,15346,0.070,551
2019-10-11T10:18:49,42.805,6.029,CST-1368DR,7630,10687,15344,0.070,551
2019-10-11T10:21:51,42.805,6.029,CST-1368DR,7630,10690,15348,0.069,550
2019-10-11T10:24:52,42.805,6.029,CST-1368DR,7630,10683,15338,0.072,551
2019-10-11T10:27:54,42.805,6.029,CST-1368DR,7630,10688,15345,0.070,551
2019-10-11T10:30:56,42.805,6.029,CST-1368DR,7630,10689,15347,0.070,551
2019-10-11T10:33:57,42.805,6.029,CST-1368DR,7630,10689,15347,0.070,551
2019-10-11T10:36:59,42.805,6.029,CST-1368DR,7630,10689,15346,0.070,551
2019-10-11T10:40:00,42.805,6.029,CST-1368DR,7630,10689,15347,0.070,551
2019-10-11T10:43:02,42.805,6.029,CST-1368DR,7630,10689,15347,0.070,551
2019-10-11T10:46:04,42.805,6.029,CST-1368DR,7630,10681,15335,0.073,551
2019-10-11T10:49:05,42.805,6.029,CST-1368DR,7630,10689,15346,0.070,550
2019-10-11T10:52:07,42.805,6.029,CST-1368DR,7630,10689,15347,0.070,551
2019-10-11T10:55:09,42.805,6.029,CST-1368DR,7630,10687,15344,0.070,551
2019-10-11T10:58:10,42.805,6.029,CST-1368DR,7630,10686,15343,0.071,551
2019-10-11T11:01:12,42.805,6.029,CST-1368DR,7630,10689,15346,0.070,551
2019-10-11T11:04:14,42.805,6.029,CST-1368DR,7630,10688,15345,0.070,551
2019-10-11T11:07:15,42.805,6.029,CST-1368DR,7630,10688,15345,0.070,551
2019-10-11T11:10:17,42.805,6.029,CST-1368DR,7630,10688,15346,0.070,551
2019-10-11T11:13:19,42.805,6.029,CST-1368DR,7630,10688,15345,0.070,551
2019-10-11T11:16:20,42.805,6.029,CST-1368DR,7630,10684,15340,0.071,551
2019-10-11T11:19:22,42.805,6.029,CST-1368DR,7630,10686,15343,0.071,551
2019-10-11T11:22:23,42.805,6.029,CST-1368DR,7630,10688,15345,0.070,551
2019-10-11T11:25:25,42.805,6.029,CST-1368DR,7630,10688,15346,0.070,551
2019-10-11T11:28:27,42.805,6.029,CST-1368DR,7630,10689,15347,0.070,551
2019-10-11T11:31:28,42.805,6.029,CST-1368DR,7630,10685,15342,0.071,551
2019-10-11T11:34:30,42.805,6.029,CST-1368DR,7630,10689,15347,0.070,551
2019-10-11T11:37:32,42.805,6.029,CST-1368DR,7630,10689,15346,0.070,551
2019-10-11T11:40:33,42.805,6.029,CST-1368DR,7630,10689,15347,0.070,551
2019-10-11T11:43:35,42.805,6.029,CST-1368DR,7630,10687,15344,0.070,551
2019-10-11T11:46:37,42.805,6.029,CST-1368DR,7630,10689,15346,0.070,551
2019-10-11T11:49:38,42.805,6.029,CST-1368DR,7630,10689,15346,0.070,551
2019-10-11T11:52:40,42.805,6.029,CST-1368DR,7630,10687,15344,0.070,551
2019-10-11T11:55:41,42.805,6.029,CST-1368DR,7630,10688,15346,0.070,551
2019-10-11T11:58:44,42.805,6.029,CST-1368DR,7630,10688,15346,0.070,551
2019-10-11T12:01:45,42.805,6.029,CST-1368DR,7630,10689,15347,0.070,551
2019-10-11T12:04:47,42.805,6.029,CST-1368DR,7630,10688,15345,0.070,551
2019-10-11T12:07:49,42.805,6.029,CST-1368DR,7630,10688,15345,0.070,551
2019-10-11T12:10:51,42.805,6.029,CST-1368DR,7630,10688,15345,0.070,551
2019-10-11T12:13:52,42.805,6.029,CST-1368DR,7630,10688,15346,0.070,551
2019-10-11T12:16:54,42.805,6.029,CST-1368DR,7630,10687,15344,0.070,551
2019-10-11T12:19:56,42.805,6.029,CST-1368DR,7630,10688,15345,0.070,551
2019-10-11T12:22:57,42.805,6.029,CST-1368DR,7630,10687,15343,0.071,551
2019-10-11T12:25:59,42.805,6.029,CST-1368DR,7630,10687,15344,0.070,551
2019-10-11T12:29:01,42.805,6.029,CST-1368DR,7630,10687,15344,0.070,551
2019-10-11T12:32:02,42.805,6.029,CST-1368DR,7630,10687,15344,0.070,551
2019-10-11T12:35:04,42.805,6.029,CST-1368DR,7630,10689,15347,0.070,551
2019-10-11T12:38:06,42.805,6.029,CST-1368DR,7629,10687,15346,0.070,550
2019-10-11T12:41:07,42.805,6.029,CST-1368DR,7629,10687,15346,0.070,551
2019-10-11T12:44:09,42.805,6.029,CST-1368DR,7629,10687,15346,0.070,551
2019-10-11T12:47:10,42.805,6.029,CST-1368DR,7630,10689,15346,0.070,551
2019-10-11T12:50:12,42.805,6.029,CST-1368DR,7629,10688,15347,0.070,551
2019-10-11T12:53:14,42.805,6.029,CST-1368DR,7629,10687,15346,0.070,551
2019-10-11T12:56:15,42.805,6.029,CST-1368DR,7629,10688,15347,0.070,550
2019-10-11T12:59:17,42.805,6.029,CST-1368DR,7629,10688,15347,0.070,551
2019-10-11T13:02:19,42.805,6.029,CST-1368DR,7629,10688,15347,0.070,551
2019-10-11T13:05:20,42.805,6.029,CST-1368DR,7629,10687,15346,0.070,551
2019-10-11T13:08:22,42.805,6.029,CST-1368DR,7629,10689,15348,0.069,551
2019-10-11T13:11:24,42.805,6.029,CST-1368DR,7629,10688,15347,0.070,551
2019-10-11T13:14:25,42.805,6.029,CST-1368DR,7629,10688,15348,0.069,551
2019-10-11T13:17:27,42.805,6.029,CST-1368DR,7629,10688,15347,0.070,551
2019-10-11T13:20:29,42.805,6.029,CST-1368DR,7629,10688,15347,0.070,551
2019-10-11T13:23:30,42.805,6.029,CST-1368DR,7629,10688,15347,0.070,551
2019-10-11T13:26:32,42.805,6.029,CST-1368DR,7629,10686,15345,0.070,551
2019-10-11T13:29:34,42.805,6.029,CST-1368DR,7629,10687,15346,0.070,551
2019-10-11T13:32:35,42.805,6.029,CST-1368DR,7629,10688,15347,0.070,551
2019-10-11T13:35:37,42.805,6.029,CST-1368DR,7629,10688,15347,0.070,551
2019-10-11T13:38:38,42.805,6.029,CST-1368DR,7629,10686,15344,0.070,551
2019-10-11T13:41:40,42.805,6.029,CST-1368DR,7629,10687,15346,0.070,551
2019-10-11T13:44:42,42.805,6.029,CST-1368DR,7629,10687,15346,0.070,551
2019-10-11T13:47:43,42.805,6.029,CST-1368DR,7629,10687,15345,0.070,551
2019-10-11T13:50:45,42.805,6.029,CST-1368DR,7629,10688,15347,0.070,551
2019-10-11T13:53:47,42.805,6.029,CST-1368DR,7629,10687,15346,0.070,551
2019-10-11T13:56:48,42.805,6.029,CST-1368DR,7629,10686,15345,0.070,551
2019-10-11T13:59:50,42.805,6.029,CST-1368DR,7629,10687,15346,0.070,551
2019-10-11T14:02:52,42.805,6.029,CST-1368DR,7629,10688,15347,0.070,551
2019-10-11T14:05:53,42.805,6.029,CST-1368DR,7629,10687,15346,0.070,551
2019-10-11T14:08:55,42.805,6.029,CST-1368DR,7629,10687,15346,0.070,551
2019-10-11T14:11:57,42.805,6.029,CST-1368DR,7629,10687,15346,0.070,551
2019-10-11T14:14:58,42.805,6.029,CST-1368DR,7629,10686,15344,0.070,550
2019-10-11T14:18:00,42.805,6.029,CST-1368DR,7629,10687,15346,0.070,551
2019-10-11T14:21:02,42.805,6.029,CST-1368DR,7629,10686,15344,0.070,551
2019-10-11T14:24:03,42.805,6.029,CST-1368DR,7629,10687,15345,0.070,551
2019-10-11T14:27:05,42.805,6.029,CST-1368DR,7629,10687,15345,0.070,551
2019-10-11T14:30:07,42.805,6.029,CST-1368DR,7629,10686,15345,0.070,551
2019-10-11T14:33:08,42.805,6.029,CST-1368DR,7629,10686,15344,0.070,551
2019-10-11T14:36:10,42.805,6.029,CST-1368DR,7629,10687,15346,0.070,551
2019-10-11T14:39:11,42.805,6.029,CST-1368DR,7629,10685,15343,0.071,551
2019-10-11T14:42:13,42.805,6.029,CST-1368DR,7629,10686,15344,0.070,550
2019-10-11T14:45:15,42.805,6.029,CST-1368DR,7629,10685,15343,0.071,551
2019-10-11T14:48:16,42.805,6.029,CST-1368DR,7628,10687,15348,0.069,551
2019-10-11T14:51:18,42.805,6.029,CST-1368DR,7628,10686,15347,0.070,551
2019-10-11T14:54:20,42.805,6.029,CST-1368DR,7628,10686,15346,0.070,550
2019-10-11T14:57:21,42.805,6.029,CST-1368DR,7628,10687,15347,0.070,551
2019-10-11T15:00:23,42.805,6.029,CST-1368DR,7628,10687,15347,0.070,551
2019-10-11T15:03:25,42.805,6.029,CST-1368DR,7628,10687,15347,0.070,551
2019-10-11T15:06:26,42.805,6.029,CST-1368DR,7628,10686,15346,0.070,551
2019-10-11T15:09:28,42.805,6.029,CST-1368DR,7628,10686,15347,0.070,551
2019-10-11T15:12:29,42.805,6.029,CST-1368DR,7628,10687,15347,0.070,551
2019-10-11T15:15:31,42.805,6.029,CST-1368DR,7628,10684,15343,0.071,551
2019-10-11T15:18:33,42.805,6.029,CST-1368DR,7628,10684,15343,0.071,551
2019-10-11T15:21:34,42.805,6.029,CST-1368DR,7628,10685,15345,0.070,551
2019-10-11T15:24:36,42.805,6.029,CST-1368DR,7628,10687,15347,0.070,551
2019-10-11T15:27:38,42.805,6.029,CST-1368DR,7628,10687,15347,0.070,551
2019-10-11T15:30:39,42.805,6.029,CST-1368DR,7628,10686,15347,0.070,551
2019-10-11T15:33:41,42.805,6.029,CST-1368DR,7628,10687,15348,0.069,551
2019-10-11T15:36:43,42.805,6.029,CST-1368DR,7628,10685,15345,0.070,551
2019-10-11T15:39:44,42.805,6.029,CST-1368DR,7628,10684,15343,0.071,551
2019-10-11T15:42:46,42.805,6.029,CST-1368DR,7628,10685,15345,0.070,550
2019-10-11T15:45:47,42.805,6.029,CST-1368DR,7628,10685,15345,0.070,551
2019-10-11T15:48:49,42.805,6.029,CST-1368DR,7628,10686,15346,0.070,551
2019-10-11T15:51:51,42.805,6.029,CST-1368DR,7628,10685,15345,0.070,551
2019-10-11T15:54:52,42.805,6.029,CST-1368DR,7628,10683,15342,0.071,551
2019-10-11T15:57:54,42.805,6.029,CST-1368DR,7628,10686,15347,0.070,551
2019-10-11T16:00:56,42.805,6.029,CST-1368DR,7628,10684,15343,0.071,551
2019-10-11T16:03:57,42.805,6.029,CST-1368DR,7628,10686,15347,0.070,550
2019-10-11T16:06:59,42.805,6.029,CST-1368DR,7628,10687,15347,0.070,551
2019-10-11T16:10:01,42.805,6.029,CST-1368DR,7628,10685,15345,0.070,551
2019-10-11T16:13:02,42.805,6.029,CST-1368DR,7628,10685,15345,0.070,551
2019-10-11T16:16:04,42.805,6.029,CST-1368DR,7628,10685,15345,0.070,551
2019-10-11T16:19:06,42.805,6.029,CST-1368DR,7628,10684,15343,0.071,551
2019-10-11T16:22:07,42.805,6.029,CST-1368DR,7628,10686,15346,0.070,551
2019-10-11T16:25:09,42.805,6.029,CST-1368DR,7628,10684,15344,0.070,551
2019-10-11T16:28:11,42.805,6.029,CST-1368DR,7628,10686,15346,0.070,551
2019-10-11T16:31:12,42.805,6.029,CST-1368DR,7628,10685,15345,0.070,551
2019-10-11T16:34:14,42.805,6.029,CST-1368DR,7628,10685,15345,0.070,551
2019-10-11T16:37:15,42.805,6.029,CST-1368DR,7628,10687,15347,0.070,550